Location: Nairn
(57.5833°N, 3.8667°W)
Time: 20:31:03
(UTC+00:00)

S-56A Canister/Altair - Pass Details

Date: 04 October 2022
Orbit: 638 x 2494 km, 38.9° (Epoch: 05 December)

Event Time Altitude Azimuth Distance (km) Brightness Sun altitude
Exits shadow 03:04:05 21° 173° (S) 2,678 10.0 -26.2°
Drops below altitude 10° 03:08:30 10° 136° (SE) 3,060 10.6 -25.8°
Sets 03:11:32 0° 121° (ESE) 3,758 11.4 -25.4°
